Location: Stockholm
(59.3330°N, 18.0500°E)
Time: 14:04:02
(UTC+01:00)

Envisat - Pass Details

Date: 30 November 2022
Orbit: 763 x 765 km, 98.2° (Epoch: 29 January)

Event Time Altitude Azimuth Distance (km) Brightness Sun altitude
Rises 03:48:17 0° 18° (NNE) 3,250 6.6 -32.2°
Reaches altitude 10° 03:50:42 10° 24° (NNE) 2,319 5.8 -31.9°
Maximum altitude 03:55:38 48° 99° (E) 999 3.8 -31.2°
Enters shadow 03:56:08 46° 118° (ESE) 1,021 3.8 -31.2°
